SPTHC EPRZ-EPKK

Flight info

Callsign SPTHC
Flight time 1h 12m
Altitude 8500
Route DCT EPRZY DCT EPRZW DCT LUXAR DCT SKAVI DCT EPKKS DCT EPKKK DCT
Aircraft C172/L-SFG/C

Departure

Time 2026-04-22 18:18
Airport Rzeszów-Jasionka Airport (EPRZ)

Arrival

Time 2026-04-22 19:30
Airport Kraków John Paul II International Airport (EPKK)
Time Latitude Longitude Altitude Speed Heading
2026-04-22 17:48 50.11154 22.04701 663 ft 0 kts 189°
2026-04-22 18:14 50.11151 22.04700 662 ft 1 kts 189°
2026-04-22 18:14 50.11141 22.04697 662 ft 1 kts 204°
2026-04-22 18:15 50.11136 22.04687 662 ft 1 kts 260°
2026-04-22 18:15 50.11134 22.04667 662 ft 2 kts 265°
2026-04-22 18:15 50.11120 22.04637 663 ft 5 kts 194°
2026-04-22 18:15 50.11067 22.04633 662 ft 9 kts 181°
2026-04-22 18:16 50.11047 22.04632 662 ft 0 kts 180°
2026-04-22 18:16 50.11022 22.04631 662 ft 7 kts 179°
2026-04-22 18:16 50.10966 22.04609 662 ft 8 kts 233°
2026-04-22 18:17 50.10961 22.04470 663 ft 33 kts 270°
2026-04-22 18:17 50.10969 22.03951 698 ft 63 kts 272°
2026-04-22 18:17 50.10964 22.03342 902 ft 58 kts 269°
2026-04-22 18:17 50.10946 22.02729 1051 ft 66 kts 269°
2026-04-22 18:18 50.10925 22.02051 1239 ft 69 kts 272°
2026-04-22 18:18 50.10918 22.01352 1402 ft 72 kts 277°
2026-04-22 18:18 50.10916 22.00653 1554 ft 71 kts 278°
2026-04-22 18:18 50.10842 21.99909 1612 ft 81 kts 262°
2026-04-22 18:19 50.10570 21.99161 1649 ft 88 kts 249°
2026-04-22 18:19 50.10191 21.98483 1688 ft 89 kts 239°
2026-04-22 18:19 50.09788 21.97851 1789 ft 91 kts 238°
2026-04-22 18:19 50.09358 21.97184 1936 ft 94 kts 236°
2026-04-22 18:20 50.08914 21.96543 2120 ft 94 kts 233°
2026-04-22 18:20 50.08476 21.95931 2338 ft 89 kts 233°
2026-04-22 18:20 50.08064 21.95364 2560 ft 83 kts 232°
2026-04-22 18:20 50.07670 21.94805 2738 ft 81 kts 234°
2026-04-22 18:21 50.07312 21.94231 2912 ft 79 kts 237°
2026-04-22 18:21 50.06973 21.93650 3082 ft 77 kts 238°
2026-04-22 18:21 50.06657 21.93050 3224 ft 76 kts 249°
2026-04-22 18:21 50.06514 21.92382 3361 ft 70 kts 271°
2026-04-22 18:22 50.06475 21.91699 3500 ft 70 kts 277°
2026-04-22 18:22 50.06460 21.91007 3647 ft 71 kts 278°
2026-04-22 18:22 50.06451 21.90328 3789 ft 72 kts 278°
2026-04-22 18:22 50.06445 21.89615 3938 ft 72 kts 278°
2026-04-22 18:23 50.06440 21.88922 4083 ft 72 kts 278°
2026-04-22 18:23 50.06435 21.88220 4223 ft 73 kts 278°
2026-04-22 18:23 50.06431 21.87527 4364 ft 73 kts 278°
2026-04-22 18:24 50.06422 21.86124 4647 ft 73 kts 277°
2026-04-22 18:24 50.06417 21.85422 4785 ft 74 kts 278°
2026-04-22 18:24 50.06408 21.84001 5070 ft 75 kts 278°
2026-04-22 18:25 50.06404 21.83272 5204 ft 76 kts 278°
2026-04-22 18:25 50.06399 21.82539 5347 ft 75 kts 277°
2026-04-22 18:25 50.06395 21.81817 5480 ft 76 kts 278°
2026-04-22 18:26 50.06386 21.80386 5742 ft 77 kts 278°
2026-04-22 18:26 50.06382 21.79641 5873 ft 77 kts 278°
2026-04-22 18:26 50.06377 21.78906 6017 ft 77 kts 278°
2026-04-22 18:26 50.06372 21.78154 6144 ft 77 kts 278°
2026-04-22 18:27 50.06368 21.77366 6274 ft 78 kts 278°
2026-04-22 18:27 50.06363 21.76593 6407 ft 78 kts 278°
2026-04-22 18:27 50.06357 21.75841 6536 ft 78 kts 278°
2026-04-22 18:27 50.06352 21.75090 6656 ft 78 kts 278°
2026-04-22 18:28 50.06347 21.74341 6779 ft 78 kts 278°
2026-04-22 18:28 50.06341 21.73583 6897 ft 79 kts 279°
2026-04-22 18:28 50.06250 21.72809 7019 ft 84 kts 262°
2026-04-22 18:28 50.06082 21.72043 7132 ft 86 kts 260°
2026-04-22 18:29 50.05894 21.71243 7249 ft 86 kts 259°
2026-04-22 18:29 50.05709 21.70469 7353 ft 87 kts 259°
2026-04-22 18:29 50.05521 21.69678 7470 ft 87 kts 259°
2026-04-22 18:29 50.05336 21.68903 7580 ft 87 kts 258°
2026-04-22 18:30 50.05146 21.68107 7693 ft 88 kts 258°
2026-04-22 18:30 50.04767 21.66521 7907 ft 88 kts 259°
2026-04-22 18:30 50.04575 21.65719 8012 ft 88 kts 259°
2026-04-22 18:31 50.04380 21.64904 8107 ft 89 kts 259°
2026-04-22 18:31 50.04187 21.64097 8201 ft 89 kts 259°
2026-04-22 18:31 50.03989 21.63265 8291 ft 90 kts 259°
2026-04-22 18:31 50.03790 21.62436 8383 ft 91 kts 259°
2026-04-22 18:32 50.03592 21.61607 8476 ft 92 kts 259°
2026-04-22 18:32 50.03390 21.60754 8557 ft 95 kts 259°
2026-04-22 18:32 50.03180 21.59852 8599 ft 102 kts 259°
2026-04-22 18:32 50.02954 21.58851 8608 ft 110 kts 260°
2026-04-22 18:33 50.02718 21.57785 8611 ft 116 kts 260°
2026-04-22 18:33 50.02470 21.56687 8606 ft 115 kts 259°
2026-04-22 18:33 50.02222 21.55625 8602 ft 113 kts 259°
2026-04-22 18:33 50.01969 21.54561 8604 ft 112 kts 258°
2026-04-22 18:34 50.01717 21.53515 8601 ft 112 kts 258°
2026-04-22 18:34 50.01465 21.52470 8600 ft 112 kts 258°
2026-04-22 18:34 50.01213 21.51424 8595 ft 112 kts 258°
2026-04-22 18:34 50.00961 21.50380 8594 ft 111 kts 259°
2026-04-22 18:35 50.00709 21.49340 8593 ft 111 kts 258°
2026-04-22 18:35 50.00457 21.48301 8593 ft 111 kts 259°
2026-04-22 18:35 50.00197 21.47224 8590 ft 111 kts 259°
2026-04-22 18:35 49.99946 21.46182 8584 ft 111 kts 259°
2026-04-22 18:36 49.99693 21.45142 8587 ft 110 kts 259°
2026-04-22 18:36 49.99442 21.44102 8586 ft 110 kts 259°
2026-04-22 18:36 49.99192 21.43074 8585 ft 110 kts 259°
2026-04-22 18:36 49.98941 21.42036 8588 ft 110 kts 259°
2026-04-22 18:37 49.98692 21.41013 8589 ft 110 kts 259°
2026-04-22 18:37 49.98443 21.39980 8589 ft 110 kts 258°
2026-04-22 18:37 49.98189 21.38935 8590 ft 111 kts 259°
2026-04-22 18:37 49.97929 21.37863 8587 ft 111 kts 258°
2026-04-22 18:38 49.97665 21.36776 8588 ft 111 kts 258°
2026-04-22 18:38 49.97398 21.35682 8593 ft 111 kts 259°
2026-04-22 18:38 49.97134 21.34598 8594 ft 111 kts 258°
2026-04-22 18:39 49.96624 21.32499 8598 ft 111 kts 258°
2026-04-22 18:39 49.96369 21.31453 8601 ft 111 kts 258°
2026-04-22 18:39 49.96109 21.30393 8603 ft 111 kts 258°
2026-04-22 18:39 49.95852 21.29348 8605 ft 111 kts 258°
2026-04-22 18:40 49.95578 21.28235 8601 ft 111 kts 258°
2026-04-22 18:40 49.95302 21.27122 8601 ft 111 kts 258°
2026-04-22 18:40 49.95030 21.26020 8604 ft 111 kts 258°
2026-04-22 18:40 49.94759 21.24919 8605 ft 111 kts 258°
2026-04-22 18:41 49.94497 21.23855 8608 ft 110 kts 258°
2026-04-22 18:41 49.94240 21.22809 8607 ft 111 kts 258°
2026-04-22 18:41 49.93979 21.21750 8609 ft 110 kts 257°
2026-04-22 18:41 49.93724 21.20717 8610 ft 110 kts 258°
2026-04-22 18:42 49.93464 21.19662 8615 ft 110 kts 257°
2026-04-22 18:42 49.93206 21.18616 8616 ft 111 kts 258°
2026-04-22 18:42 49.92995 21.17572 8607 ft 106 kts 272°
2026-04-22 18:42 49.92966 21.16514 8615 ft 103 kts 279°
2026-04-22 18:43 49.92974 21.15451 8616 ft 103 kts 281°
2026-04-22 18:43 49.92988 21.14393 8613 ft 104 kts 280°
2026-04-22 18:43 49.93003 21.13316 8613 ft 104 kts 281°
2026-04-22 18:43 49.93017 21.12249 8613 ft 104 kts 281°
2026-04-22 18:44 49.93031 21.11193 8615 ft 103 kts 280°
2026-04-22 18:44 49.93044 21.10137 8615 ft 104 kts 280°
2026-04-22 18:44 49.93058 21.09089 8612 ft 104 kts 281°
2026-04-22 18:44 49.93071 21.08030 8612 ft 104 kts 280°
2026-04-22 18:45 49.93084 21.06993 8613 ft 103 kts 280°
2026-04-22 18:45 49.93098 21.05935 8614 ft 103 kts 280°
2026-04-22 18:45 49.93111 21.04887 8615 ft 104 kts 280°
2026-04-22 18:45 49.93123 21.03846 8615 ft 104 kts 280°
2026-04-22 18:46 49.93135 21.02797 8616 ft 104 kts 281°
2026-04-22 18:46 49.93147 21.01756 8615 ft 104 kts 281°
2026-04-22 18:46 49.93159 21.00708 8616 ft 104 kts 281°
2026-04-22 18:46 49.93172 20.99664 8617 ft 104 kts 281°
2026-04-22 18:47 49.93185 20.98579 8620 ft 104 kts 281°
2026-04-22 18:47 49.93198 20.97509 8622 ft 104 kts 280°
2026-04-22 18:47 49.93211 20.96440 8619 ft 104 kts 281°
2026-04-22 18:47 49.93224 20.95359 8619 ft 104 kts 280°
2026-04-22 18:48 49.93238 20.94298 8615 ft 105 kts 280°
2026-04-22 18:48 49.93251 20.93214 8616 ft 104 kts 280°
2026-04-22 18:48 49.93264 20.92162 8614 ft 104 kts 280°
2026-04-22 18:48 49.93277 20.91093 8610 ft 104 kts 281°
2026-04-22 18:49 49.93288 20.90052 8604 ft 105 kts 280°
2026-04-22 18:49 49.93301 20.88982 8601 ft 105 kts 281°
2026-04-22 18:49 49.93313 20.87929 8597 ft 105 kts 281°
2026-04-22 18:49 49.93324 20.86883 8597 ft 104 kts 281°
2026-04-22 18:50 49.93335 20.85839 8597 ft 104 kts 281°
2026-04-22 18:50 49.93348 20.84799 8595 ft 103 kts 281°
2026-04-22 18:50 49.93361 20.83772 8605 ft 103 kts 281°
2026-04-22 18:50 49.93373 20.82715 8605 ft 104 kts 281°
2026-04-22 18:51 49.93385 20.81682 8603 ft 104 kts 281°
2026-04-22 18:51 49.93397 20.80600 8603 ft 104 kts 281°
2026-04-22 18:51 49.93409 20.79533 8606 ft 104 kts 280°
2026-04-22 18:51 49.93420 20.78486 8602 ft 104 kts 280°
2026-04-22 18:52 49.93431 20.77448 8602 ft 104 kts 280°
2026-04-22 18:52 49.93442 20.76411 8601 ft 104 kts 281°
2026-04-22 18:52 49.93452 20.75380 8602 ft 104 kts 281°
2026-04-22 18:52 49.93462 20.74329 8605 ft 104 kts 281°
2026-04-22 18:53 49.93471 20.73308 8609 ft 103 kts 281°
2026-04-22 18:53 49.93480 20.72298 8610 ft 103 kts 281°
2026-04-22 18:53 49.93489 20.71284 8615 ft 103 kts 281°
2026-04-22 18:53 49.93499 20.70241 8619 ft 103 kts 281°
2026-04-22 18:54 49.93508 20.69180 8619 ft 102 kts 281°
2026-04-22 18:54 49.93517 20.68111 8620 ft 103 kts 281°
2026-04-22 18:54 49.93527 20.67112 8621 ft 103 kts 280°
2026-04-22 18:54 49.93536 20.66088 8619 ft 104 kts 281°
2026-04-22 18:55 49.93545 20.65081 8619 ft 104 kts 281°
2026-04-22 18:55 49.93555 20.64070 8620 ft 104 kts 281°
2026-04-22 18:55 49.93553 20.63069 8618 ft 106 kts 275°
2026-04-22 18:55 49.93254 20.62076 8617 ft 116 kts 242°
2026-04-22 18:56 49.92968 20.61098 8610 ft 107 kts 269°
2026-04-22 18:56 49.92920 20.60090 8618 ft 103 kts 280°
2026-04-22 18:56 49.92960 20.59120 8618 ft 100 kts 287°
2026-04-22 18:56 49.93049 20.58142 8621 ft 100 kts 288°
2026-04-22 18:57 49.93149 20.57124 8622 ft 100 kts 289°
2026-04-22 18:57 49.93244 20.56161 8622 ft 100 kts 289°
2026-04-22 18:57 49.93338 20.55208 8626 ft 100 kts 288°
2026-04-22 18:57 49.93435 20.54238 8626 ft 100 kts 288°
2026-04-22 18:58 49.93529 20.53283 8630 ft 100 kts 289°
2026-04-22 18:58 49.93581 20.52311 8632 ft 102 kts 283°
2026-04-22 18:58 49.93612 20.51329 8629 ft 103 kts 283°
2026-04-22 18:58 49.93639 20.50356 8627 ft 103 kts 282°
2026-04-22 18:59 49.93663 20.49376 8629 ft 103 kts 282°
2026-04-22 18:59 49.93684 20.48354 8627 ft 103 kts 281°
2026-04-22 18:59 49.93703 20.47301 8624 ft 104 kts 282°
2026-04-22 18:59 49.93716 20.46326 8622 ft 104 kts 281°
2026-04-22 19:00 49.93727 20.45331 8620 ft 104 kts 281°
2026-04-22 19:00 49.93737 20.44344 8617 ft 105 kts 281°
2026-04-22 19:00 49.93745 20.43348 8614 ft 105 kts 280°
2026-04-22 19:00 49.93753 20.42343 8619 ft 105 kts 281°
2026-04-22 19:01 49.93760 20.41351 8621 ft 105 kts 281°
2026-04-22 19:01 49.93767 20.40352 8619 ft 105 kts 281°
2026-04-22 19:01 49.93774 20.39350 8621 ft 105 kts 281°
2026-04-22 19:01 49.93780 20.38362 8622 ft 105 kts 281°
2026-04-22 19:02 49.93787 20.37372 8621 ft 105 kts 281°
2026-04-22 19:02 49.93794 20.36388 8621 ft 105 kts 281°
2026-04-22 19:02 49.93801 20.35400 8619 ft 105 kts 281°
2026-04-22 19:02 49.93808 20.34399 8623 ft 104 kts 280°
2026-04-22 19:03 49.93813 20.33438 8624 ft 104 kts 280°
2026-04-22 19:03 49.93820 20.32452 8623 ft 104 kts 280°
2026-04-22 19:03 49.93825 20.31466 8628 ft 104 kts 280°
2026-04-22 19:03 49.93832 20.30477 8629 ft 104 kts 280°
2026-04-22 19:04 49.93838 20.29492 8628 ft 104 kts 280°
2026-04-22 19:04 49.93843 20.28506 8630 ft 104 kts 280°
2026-04-22 19:04 49.93848 20.27545 8632 ft 104 kts 280°
2026-04-22 19:04 49.93855 20.26550 8603 ft 107 kts 281°
2026-04-22 19:05 49.93868 20.25485 8492 ft 111 kts 281°
2026-04-22 19:05 49.93879 20.24406 8375 ft 111 kts 280°
2026-04-22 19:05 49.93888 20.23326 8262 ft 112 kts 280°
2026-04-22 19:05 49.93896 20.22219 8155 ft 112 kts 280°
2026-04-22 19:06 49.93902 20.21123 8047 ft 112 kts 280°
2026-04-22 19:06 49.93908 20.20066 7938 ft 112 kts 280°
2026-04-22 19:06 49.93913 20.18999 7826 ft 112 kts 280°
2026-04-22 19:07 49.93925 20.16837 7605 ft 112 kts 280°
2026-04-22 19:07 49.93930 20.15737 7472 ft 114 kts 280°
2026-04-22 19:07 49.93937 20.14624 7339 ft 115 kts 279°
2026-04-22 19:07 49.93942 20.13531 7202 ft 115 kts 279°
2026-04-22 19:08 49.93948 20.12401 7046 ft 117 kts 279°
2026-04-22 19:08 49.93953 20.11217 6885 ft 117 kts 279°
2026-04-22 19:08 49.93958 20.10048 6729 ft 118 kts 279°
2026-04-22 19:08 49.93962 20.08858 6563 ft 117 kts 279°
2026-04-22 19:09 49.93967 20.07701 6395 ft 117 kts 279°
2026-04-22 19:09 49.93972 20.06498 6232 ft 117 kts 279°
2026-04-22 19:09 49.93977 20.05312 6071 ft 116 kts 279°
2026-04-22 19:09 49.93982 20.04109 5905 ft 116 kts 279°
2026-04-22 19:10 49.93987 20.02910 5738 ft 116 kts 278°
2026-04-22 19:10 49.93991 20.01754 5570 ft 116 kts 278°
2026-04-22 19:10 49.93995 20.00564 5405 ft 115 kts 278°
2026-04-22 19:10 49.93999 19.99374 5236 ft 115 kts 278°
2026-04-22 19:11 49.94003 19.98195 5066 ft 115 kts 278°
2026-04-22 19:11 49.94006 19.97017 4904 ft 115 kts 278°
2026-04-22 19:11 49.94011 19.95843 4742 ft 116 kts 278°
2026-04-22 19:11 49.94014 19.94686 4580 ft 116 kts 278°
2026-04-22 19:12 49.94018 19.93542 4422 ft 116 kts 278°
2026-04-22 19:12 49.94021 19.92357 4258 ft 116 kts 278°
2026-04-22 19:12 49.94024 19.91208 4095 ft 115 kts 278°
2026-04-22 19:12 49.94123 19.90099 3920 ft 108 kts 300°
2026-04-22 19:13 49.94479 19.89204 3758 ft 105 kts 310°
2026-04-22 19:13 49.94882 19.88383 3601 ft 104 kts 312°
2026-04-22 19:13 49.95297 19.87568 3444 ft 103 kts 313°
2026-04-22 19:13 49.95717 19.86750 3283 ft 101 kts 312°
2026-04-22 19:14 49.96115 19.85974 3127 ft 100 kts 312°
2026-04-22 19:14 49.96520 19.85193 2959 ft 99 kts 312°
2026-04-22 19:14 49.96909 19.84438 2799 ft 97 kts 311°
2026-04-22 19:14 49.97302 19.83679 2642 ft 96 kts 311°
2026-04-22 19:15 49.97562 19.83174 2535 ft 96 kts 311°
2026-04-22 19:15 49.98068 19.82195 2355 ft 92 kts 312°
2026-04-22 19:15 49.98562 19.81748 2232 ft 90 kts 339°
2026-04-22 19:15 49.99141 19.81528 2110 ft 89 kts 344°
2026-04-22 19:16 49.99712 19.81358 1988 ft 89 kts 344°
2026-04-22 19:16 50.00266 19.81207 1871 ft 89 kts 345°
2026-04-22 19:16 50.00809 19.81062 1804 ft 85 kts 344°
2026-04-22 19:16 50.01294 19.80870 1791 ft 76 kts 327°
2026-04-22 19:17 50.01728 19.80659 1787 ft 74 kts 345°
2026-04-22 19:17 50.02184 19.80576 1794 ft 72 kts 344°
2026-04-22 19:17 50.02627 19.80482 1796 ft 72 kts 342°
2026-04-22 19:17 50.03080 19.80404 1817 ft 75 kts 348°
2026-04-22 19:18 50.03554 19.80412 1856 ft 77 kts 351°
2026-04-22 19:18 50.04043 19.80390 1874 ft 79 kts 346°
2026-04-22 19:18 50.04537 19.80266 1885 ft 80 kts 341°
2026-04-22 19:18 50.05001 19.80035 1902 ft 80 kts 324°
2026-04-22 19:19 50.05317 19.79431 1894 ft 83 kts 295°
2026-04-22 19:19 50.05407 19.78613 1888 ft 84 kts 276°
2026-04-22 19:19 50.05353 19.77771 1868 ft 87 kts 265°
2026-04-22 19:19 50.05220 19.76914 1854 ft 87 kts 263°
2026-04-22 19:20 50.05065 19.76073 1838 ft 88 kts 261°
2026-04-22 19:20 50.04842 19.75265 1820 ft 92 kts 242°
2026-04-22 19:20 50.04288 19.74819 1788 ft 108 kts 191°
2026-04-22 19:20 50.03624 19.75202 1803 ft 112 kts 139°
2026-04-22 19:21 50.03336 19.76175 1784 ft 109 kts 87°
2026-04-22 19:21 50.03455 19.77210 1770 ft 105 kts 68°
2026-04-22 19:21 50.03622 19.78203 1773 ft 104 kts 69°
2026-04-22 19:21 50.03788 19.79188 1776 ft 102 kts 65°
2026-04-22 19:22 50.04089 19.79979 1806 ft 91 kts 32°
2026-04-22 19:22 50.04581 19.80248 1788 ft 85 kts 353°
2026-04-22 19:22 50.05044 19.79994 1791 ft 79 kts 317°
2026-04-22 19:22 50.05239 19.79325 1798 ft 80 kts 277°
2026-04-22 19:23 50.05162 19.78509 1783 ft 83 kts 266°
2026-04-22 19:23 50.05066 19.77704 1778 ft 83 kts 266°
2026-04-22 19:23 50.04969 19.76883 1776 ft 82 kts 265°
2026-04-22 19:23 50.04862 19.76090 1788 ft 81 kts 264°
2026-04-22 19:24 50.04737 19.75297 1790 ft 82 kts 261°
2026-04-22 19:24 50.04515 19.74537 1783 ft 89 kts 238°
2026-04-22 19:24 50.03976 19.74098 1760 ft 101 kts 199°
2026-04-22 19:24 50.03324 19.74254 1761 ft 109 kts 158°
2026-04-22 19:25 50.02844 19.75023 1748 ft 111 kts 112°
2026-04-22 19:25 50.02793 19.76069 1736 ft 105 kts 72°
2026-04-22 19:25 50.02982 19.77017 1733 ft 102 kts 61°
2026-04-22 19:25 50.03216 19.77921 1753 ft 99 kts 57°
2026-04-22 19:26 50.03464 19.78774 1773 ft 97 kts 54°
2026-04-22 19:26 50.03740 19.79623 1778 ft 96 kts 51°
2026-04-22 19:26 50.04110 19.80279 1781 ft 91 kts 27°
2026-04-22 19:26 50.04591 19.80720 1746 ft 89 kts 13°
2026-04-22 19:27 50.05097 19.80765 1732 ft 82 kts 333°
2026-04-22 19:27 50.05454 19.80276 1743 ft 78 kts 318°
2026-04-22 19:27 50.05929 19.80120 1718 ft 88 kts
2026-04-22 19:27 50.06412 19.80579 1697 ft 98 kts 38°
2026-04-22 19:28 50.06743 19.81391 1723 ft 99 kts 54°
2026-04-22 19:28 50.07025 19.82251 1723 ft 97 kts 50°
2026-04-22 19:28 50.07411 19.82873 1696 ft 86 kts 11°
2026-04-22 19:28 50.07958 19.82894 1643 ft 77 kts 335°
2026-04-22 19:29 50.08301 19.82408 1558 ft 72 kts 283°
2026-04-22 19:29 50.08221 19.81680 1367 ft 70 kts 260°
2026-04-22 19:29 50.08107 19.81030 1214 ft 65 kts 258°
2026-04-22 19:29 50.08021 19.80320 961 ft 70 kts 262°
2026-04-22 19:30 50.07955 19.79810 806 ft 68 kts 259°
2026-04-22 19:30 50.07851 19.79107 793 ft 22 kts 255°
2026-04-22 19:30 50.07814 19.79057 793 ft 8 kts 164°
2026-04-22 19:30 50.07752 19.79088 793 ft 10 kts 166°
2026-04-22 19:31 50.07673 19.79115 793 ft 12 kts 169°
2026-04-22 19:31 50.07616 19.79178 793 ft 8 kts 82°
2026-04-22 19:31 50.07630 19.79276 793 ft 10 kts 77°
2026-04-22 19:31 50.07648 19.79403 793 ft 13 kts 76°
2026-04-22 19:32 50.07669 19.79555 793 ft 15 kts 81°
2026-04-22 19:32 50.07693 19.79726 793 ft 17 kts 76°
2026-04-22 19:32 50.07697 19.79864 793 ft 6 kts 130°
2026-04-22 19:32 50.07653 19.79887 793 ft 7 kts 168°
2026-04-22 19:33 50.07612 19.79908 793 ft 4 kts 127°
2026-04-22 19:33 50.07610 19.79966 793 ft 6 kts 81°
2026-04-22 19:33 50.07621 19.80051 793 ft 9 kts 78°
2026-04-22 19:33 50.07637 19.80162 793 ft 9 kts 76°
2026-04-22 19:34 50.07652 19.80176 793 ft 1 kts 345°
2026-04-22 19:34 50.07671 19.80171 793 ft 4 kts 347°
2026-04-22 19:34 50.07705 19.80159 793 ft 2 kts 346°